Погода в Сан-Педро

Кот-д’Ивуар     5°18′05″N   6°07′00″W
темп.,
°C
ветер,
м/с
пор.,
м/с
влажн.,
%
обл.,
%
осадки,
мм/ч
давл.,
гПа
погр.,
м
1 августа, вс
вс100:00+22юз1698100 0.5 1017213
03:00+21юз1798100 0.0 1015269
06:00+22юз159858 0.1 1016182
09:00+24юз148896 0.1 1018341
12:00+28ююз246877 1.4 10161210
15:00+28ю346662 1.1 10141149
18:00+25ю367549 1.2 1015647
21:00+22ююз16941 0.0 1017267
2 августа, пн
пн200:00+22зюз129711 0.0 101882
03:00+21з169824 0.0 1016190
06:00+21з159928 0.0 1016165
09:00+26зюз237118 0.0 1018707
12:00+28юз236299 0.3 10171372
15:00+28ю236388 0.3 10141204
18:00+25ю2577100 0.4 1015515
21:00+22ююз159363 0.0 1017173
3 августа, вт
вт300:00+21юз139762 0.0 101686
03:00+21зюз1699100 0.0 1015213
06:00+21з129896 0.0 101659
09:00+24з1383100 0.1 1018460
12:00+29юз2361100 0.3 10171317
15:00+26ю346998 0.2 1015508
18:00+25ю257590 0.3 1014338
21:00+22юз13885 0.0 101789
4 августа, ср
ср400:00+21юз119219 0.0 101718
03:00+20юз1197100 0.0 101524
06:00+20зюз1299100 0.0 101642
09:00+25юз237391 0.0 1018838
12:00+26ю3371100 0.3 1018867
15:00+26ююз336885 0.1 1016906
18:00+25ю257470 0.1 1016487
21:00+21ю14914 0.0 1019130
5 августа, чт
чт500:00+20ююз11925 0.0 101923
03:00+20з11924 0.0 101612
06:00+19зсз11942 0.0 101811
09:00+26ю23655 0.0 1020891
12:00+28ю335486 0.0 10181539
15:00+29ю334987 0.0 10161641
18:00+24ююв366965 0.0 1017527
21:00+21ю128825 0.0 101865